| time (UTC) | temp F | wind direction | speed knots | gust knots | rain 1hr in | rain 24hr in | rain mn in | humidity % | barometer mb |
| 20260507161504 | 53 | 326 | 2.6 | 12.2 | 0.00 | 0.00 | 0.00 | 49 | 1015.6 |
| 20260507161003 | 53 | 347 | 4.3 | 11.3 | 0.00 | 0.00 | 0.00 | 49 | 1015.6 |
| 20260507160504 | 53 | 296 | 4.3 | 13.0 | 0.00 | 0.00 | 0.00 | 51 | 1015.6 |
| 20260507160005 | 52 | 252 | 5.2 | 13.0 | 0.00 | 0.00 | 0.00 | 49 | 1015.6 |
| 20260507155510 | 52 | 328 | 4.3 | 13.0 | 0.00 | 0.00 | 0.00 | 49 | 1015.7 |
| 20260507155006 | 52 | 313 | 6.1 | 11.3 | 0.00 | 0.00 | 0.00 | 48 | 1015.6 |
| 20260507154522 | 52 | 341 | 6.1 | 11.3 | 0.00 | 0.00 | 0.00 | 47 | 1015.6 |
| 20260507154008 | 52 | 303 | 3.5 | 11.3 | 0.00 | 0.00 | 0.00 | 51 | 1015.6 |
| 20260507153505 | 52 | 281 | 4.3 | 9.6 | 0.00 | 0.00 | 0.00 | 52 | 1015.5 |
| 20260507153029 | 52 | 311 | 3.5 | 8.7 | 0.00 | 0.00 | 0.00 | 51 | 1015.5 |
| 20260507152508 | 51 | 300 | 4.3 | 8.7 | 0.00 | 0.00 | 0.00 | 53 | 1015.4 |
| 20260507152011 | 51 | 262 | 5.2 | 8.7 | 0.00 | 0.00 | 0.00 | 50 | 1015.4 |
| 20260507151519 | 51 | 312 | 1.7 | 7.8 | 0.00 | 0.00 | 0.00 | 54 | 1015.3 |
| 20260507151009 | 51 | 323 | 3.5 | 8.7 | 0.00 | 0.00 | 0.00 | 52 | 1015.4 |
| 20260507150504 | 51 | 226 | 4.3 | 8.7 | 0.00 | 0.00 | 0.00 | 51 | 1015.4 |
| 20260507150003 | 51 | 294 | 3.5 | 11.3 | 0.00 | 0.00 | 0.00 | 52 | 1015.4 |
| 20260507145503 | 51 | 290 | 7.0 | 13.0 | 0.00 | 0.00 | 0.00 | 52 | 1015.4 |
| 20260507145005 | 51 | 253 | 6.1 | 13.0 | 0.00 | 0.00 | 0.00 | 50 | 1015.4 |
| 20260507144510 | 50 | 281 | 3.5 | 7.8 | 0.00 | 0.00 | 0.00 | 51 | 1015.4 |
| 20260507144007 | 50 | 297 | 4.3 | 7.8 | 0.00 | 0.00 | 0.00 | 51 | 1015.5 |
| 20260507143505 | 50 | 321 | 3.5 | 7.8 | 0.00 | 0.00 | 0.00 | 51 | 1015.4 |
| 20260507143022 | 50 | 297 | 2.6 | 7.8 | 0.00 | 0.00 | 0.00 | 52 | 1015.4 |
| 20260507142509 | 50 | 347 | 4.3 | 7.8 | 0.00 | 0.00 | 0.00 | 51 | 1015.5 |
| 20260507142006 | 50 | 302 | 2.6 | 7.0 | 0.00 | 0.00 | 0.00 | 53 | 1015.4 |
| 20260507141519 | 50 | 15 | 1.7 | 7.8 | 0.00 | 0.00 | 0.00 | 55 | 1015.4 |
| 20260507141009 | 49 | 311 | 2.6 | 7.8 | 0.00 | 0.00 | 0.00 | 53 | 1015.5 |
| 20260507140507 | 49 | 330 | 3.5 | 8.7 | 0.00 | 0.00 | 0.00 | 54 | 1015.5 |
| 20260507140025 | 49 | 296 | 3.5 | 12.2 | 0.00 | 0.00 | 0.00 | 53 | 1015.4 |
| 20260507135506 | 49 | 344 | 3.5 | 12.2 | 0.00 | 0.00 | 0.00 | 53 | 1015.4 |
| 20260507135007 | 49 | 324 | 4.3 | 12.2 | 0.00 | 0.00 | 0.00 | 56 | 1015.4 |
| 20260507134508 | 49 | 294 | 3.5 | 7.0 | 0.00 | 0.00 | 0.00 | 57 | 1015.4 |
| 20260507134004 | 49 | 354 | 2.6 | 7.0 | 0.00 | 0.00 | 0.00 | 57 | 1015.4 |
| 20260507133506 | 49 | 297 | 2.6 | 7.8 | 0.00 | 0.00 | 0.00 | 58 | 1015.5 |
| 20260507133012 | 48 | 318 | 2.6 | 7.8 | 0.00 | 0.00 | 0.00 | 58 | 1015.6 |
| 20260507132505 | 48 | 271 | 1.7 | 5.2 | 0.00 | 0.00 | 0.00 | 60 | 1015.6 |
| 20260507132007 | 48 | 283 | 2.6 | 7.0 | 0.00 | 0.00 | 0.00 | 60 | 1015.7 |
| 20260507131519 | 48 | 281 | 1.7 | 7.0 | 0.00 | 0.00 | 0.00 | 62 | 1015.6 |
| 20260507131006 | 48 | 252 | 2.6 | 4.3 | 0.00 | 0.00 | 0.00 | 64 | 1015.6 |
| 20260507130511 | 48 | 276 | 1.7 | 3.5 | 0.00 | 0.00 | 0.00 | 64 | 1015.6 |
| 20260507130030 | 48 | 311 | 0.9 | 3.5 | 0.00 | 0.00 | 0.00 | 69 | 1015.6 |
| 20260507125510 | 47 | 298 | 0.9 | 4.3 | 0.00 | 0.00 | 0.00 | 69 | 1015.6 |
| 20260507125012 | 47 | 316 | 1.7 | 4.3 | 0.00 | 0.00 | 0.00 | 73 | 1015.6 |
| 20260507124528 | 46 | 280 | 1.7 | 4.3 | 0.00 | 0.00 | 0.00 | 72 | 1015.6 |
| 20260507124008 | 46 | 317 | 0.9 | 2.6 | 0.00 | 0.00 | 0.00 | 73 | 1015.7 |
| 20260507123511 | 45 | 302 | 0.9 | 2.6 | 0.00 | 0.00 | 0.00 | 75 | 1015.6 |
| 20260507123027 | 45 | 317 | 0.9 | 2.6 | 0.00 | 0.00 | 0.00 | 77 | 1015.7 |
| 20260507122503 | 44 | 314 | 0.9 | 2.6 | 0.00 | 0.00 | 0.00 | 76 | 1015.6 |
| 20260507122008 | 44 | 293 | 0.0 | 1.7 | 0.00 | 0.00 | 0.00 | 78 | 1015.6 |
| 20260507121512 | 44 | 274 | 0.9 | 1.7 | 0.00 | 0.00 | 0.00 | 80 | 1015.6 |
| 20260507121008 | 43 | 278 | 0.0 | 1.7 | 0.00 | 0.00 | 0.00 | 80 | 1015.5 |
| 20260507120509 | 43 | 269 | 0.0 | 0.0 | 0.00 | 0.00 | 0.00 | 83 | 1015.6 |
| 20260507120021 | 42 | 259 | 0.0 | 0.0 | 0.00 | 0.00 | 0.00 | 86 | 1015.6 |
| 20260507115506 | 42 | 248 | 0.0 | 0.0 | 0.00 | 0.00 | 0.00 | 89 | 1015.5 |
| 20260507115013 | 41 | 249 | 0.0 | 0.0 | 0.00 | 0.00 | 0.00 | 90 | 1015.6 |
| 20260507114521 | 41 | 233 | 0.0 | 0.0 | 0.00 | 0.00 | 0.00 | 93 | 1015.6 |
| 20260507114018 | 40 | 227 | 0.0 | 0.0 | 0.00 | 0.00 | 0.00 | 94 | 1015.6 |
| 20260507113509 | 40 | 149 | 0.0 | 0.0 | 0.00 | 0.00 | 0.00 | 95 | 1015.5 |
| 20260507113028 | 39 | 127 | 0.0 | 0.0 | 0.00 | 0.00 | 0.00 | 95 | 1015.6 |
| 20260507112510 | 39 | 112 | 0.0 | 0.0 | 0.00 | 0.00 | 0.00 | 95 | 1015.5 |
| 20260507112011 | 39 | 112 | 0.0 | 0.0 | 0.00 | 0.00 | 0.00 | 95 | 1015.4 |
| 20260507111527 | 38 | 112 | 0.0 | 0.0 | 0.00 | 0.00 | 0.00 | 96 | 1015.4 |
| 20260507111011 | 38 | 112 | 0.0 | 0.0 | 0.00 | 0.00 | 0.00 | 97 | 1015.4 |
| 20260507110504 | 37 | 112 | 0.0 | 0.0 | 0.00 | 0.00 | 0.00 | 97 | 1015.3 |
| 20260507110016 | 36 | 112 | 0.0 | 0.0 | 0.00 | 0.00 | 0.00 | 97 | 1015.3 |
| 20260507105506 | 35 | 112 | 0.0 | 0.0 | 0.00 | 0.00 | 0.00 | 97 | 1015.3 |
| 20260507105010 | 35 | 112 | 0.0 | 0.0 | 0.00 | 0.00 | 0.00 | 96 | 1015.2 |
| 20260507104520 | 35 | 112 | 0.0 | 0.0 | 0.00 | 0.00 | 0.00 | 96 | 1015.2 |
| 20260507104011 | 35 | 112 | 0.0 | 0.0 | 0.00 | 0.00 | 0.00 | 96 | 1015.0 |
| 20260507103503 | 35 | 112 | 0.0 | 0.0 | 0.00 | 0.00 | 0.00 | 96 | 1015.1 |
| 20260507103005 | 36 | 112 | 0.0 | 0.0 | 0.00 | 0.00 | 0.00 | 97 | 1015.1 |
| 20260507102502 | 36 | 112 | 0.0 | 0.0 | 0.00 | 0.00 | 0.00 | 97 | 1015.0 |
| 20260507102006 | 36 | 112 | 0.0 | 0.0 | 0.00 | 0.00 | 0.00 | 97 | 1015.0 |
| 20260507101507 | 35 | 112 | 0.0 | 0.0 | 0.00 | 0.00 | 0.00 | 97 | 1015.1 |
| 20260507101004 | 35 | 112 | 0.0 | 0.0 | 0.00 | 0.00 | 0.00 | 97 | 1015.0 |
| 20260507100505 | 35 | 112 | 0.0 | 0.0 | 0.00 | 0.00 | 0.00 | 97 | 1015.0 |
| 20260507100012 | 35 | 112 | 0.0 | 0.0 | 0.00 | 0.00 | 0.00 | 96 | 1015.1 |
| 20260507095508 | 35 | 112 | 0.0 | 0.0 | 0.00 | 0.00 | 0.00 | 96 | 1015.0 |
| 20260507095007 | 35 | 112 | 0.0 | 0.0 | 0.00 | 0.00 | 0.00 | 97 | 1015.0 |
| 20260507094517 | 35 | 112 | 0.0 | 0.0 | 0.00 | 0.00 | 0.00 | 96 | 1015.0 |
| 20260507094007 | 35 | 112 | 0.0 | 0.0 | 0.00 | 0.00 | 0.00 | 96 | 1015.0 |
| 20260507093507 | 36 | 112 | 0.0 | 0.0 | 0.00 | 0.00 | 0.00 | 96 | 1014.9 |
| 20260507093004 | 36 | 112 | 0.0 | 0.0 | 0.00 | 0.00 | 0.00 | 97 | 1014.8 |
| 20260507092503 | 36 | 112 | 0.0 | 0.0 | 0.00 | 0.00 | 0.00 | 97 | 1014.8 |
| 20260507092003 | 36 | 112 | 0.0 | 0.0 | 0.00 | 0.00 | 0.00 | 96 | 1014.8 |
| 20260507091504 | 36 | 112 | 0.0 | 0.0 | 0.00 | 0.00 | 0.00 | 96 | 1014.8 |
| 20260507091004 | 36 | 112 | 0.0 | 0.0 | 0.00 | 0.00 | 0.00 | 96 | 1014.8 |
| 20260507090503 | 36 | 112 | 0.0 | 0.0 | 0.00 | 0.00 | 0.00 | 96 | 1014.7 |
| 20260507090009 | 36 | 112 | 0.0 | 0.0 | 0.00 | 0.00 | 0.00 | 96 | 1014.9 |
| 20260507085503 | 36 | 112 | 0.0 | 0.0 | 0.00 | 0.00 | 0.00 | 95 | 1014.8 |
| 20260507085007 | 37 | 112 | 0.0 | 0.0 | 0.00 | 0.00 | 0.00 | 95 | 1014.7 |
| 20260507084517 | 37 | 112 | 0.0 | 0.0 | 0.00 | 0.00 | 0.00 | 96 | 1014.8 |
| 20260507084007 | 37 | 112 | 0.0 | 0.0 | 0.00 | 0.00 | 0.00 | 95 | 1014.7 |
| 20260507083507 | 37 | 112 | 0.0 | 0.0 | 0.00 | 0.00 | 0.00 | 96 | 1014.6 |
| 20260507083018 | 37 | 112 | 0.0 | 0.0 | 0.00 | 0.00 | 0.00 | 96 | 1014.7 |
| 20260507082505 | 37 | 112 | 0.0 | 0.0 | 0.00 | 0.01 | 0.00 | 96 | 1014.7 |
| 20260507082008 | 37 | 112 | 0.0 | 0.0 | 0.00 | 0.01 | 0.00 | 95 | 1014.7 |
| 20260507081524 | 38 | 112 | 0.0 | 0.0 | 0.00 | 0.01 | 0.00 | 95 | 1014.7 |
| 20260507081004 | 38 | 112 | 0.0 | 0.0 | 0.00 | 0.01 | 0.00 | 95 | 1014.6 |
| 20260507080503 | 38 | 112 | 0.0 | 0.0 | 0.00 | 0.02 | 0.00 | 96 | 1014.6 |
| 20260507080004 | 38 | 112 | 0.0 | 0.0 | 0.00 | 0.02 | 0.00 | 96 | 1014.6 |
| 20260507075503 | 38 | 112 | 0.0 | 0.0 | 0.00 | 0.02 | 0.00 | 95 | 1014.7 |
| 20260507075003 | 38 | 112 | 0.0 | 0.0 | 0.00 | 0.03 | 0.00 | 95 | 1014.7 |
| 20260507074511 | 38 | 112 | 0.0 | 0.0 | 0.00 | 0.04 | 0.00 | 96 | 1014.8 |
| 20260507074007 | 38 | 112 | 0.0 | 0.0 | 0.00 | 0.05 | 0.00 | 96 | 1014.7 |
| 20260507073507 | 38 | 112 | 0.0 | 0.0 | 0.00 | 0.06 | 0.00 | 95 | 1014.7 |
| 20260507073013 | 38 | 112 | 0.0 | 0.0 | 0.00 | 0.07 | 0.00 | 95 | 1014.7 |
| 20260507072507 | 38 | 112 | 0.0 | 0.0 | 0.00 | 0.08 | 0.00 | 95 | 1014.6 |
| 20260507072012 | 38 | 112 | 0.0 | 0.0 | 0.00 | 0.08 | 0.00 | 95 | 1014.7 |
| 20260507071553 | 39 | 112 | 0.0 | 0.0 | 0.00 | 0.08 | 0.00 | 95 | 1014.7 |
| 20260507071007 | 39 | 112 | 0.0 | 0.0 | 0.00 | 0.08 | 0.00 | 95 | 1014.6 |
| 20260507070509 | 39 | 112 | 0.0 | 0.0 | 0.00 | 0.09 | 0.00 | 95 | 1014.6 |
| 20260507070026 | 39 | 112 | 0.0 | 0.0 | 0.00 | 0.09 | 0.00 | 95 | 1014.6 |
| 20260507065507 | 39 | 112 | 0.0 | 0.0 | 0.00 | 0.09 | 0.00 | 95 | 1014.7 |
| 20260507065002 | 39 | 112 | 0.0 | 0.0 | 0.00 | 0.09 | 0.00 | 95 | 1014.7 |
| 20260507064506 | 39 | 112 | 0.0 | 0.0 | 0.00 | 0.10 | 0.00 | 95 | 1014.7 |
| 20260507064008 | 39 | 112 | 0.0 | 0.0 | 0.00 | 0.10 | 0.00 | 95 | 1014.8 |
| 20260507063504 | 39 | 112 | 0.0 | 0.0 | 0.00 | 0.11 | 0.00 | 95 | 1014.8 |
| 20260507063008 | 40 | 112 | 0.0 | 0.0 | 0.00 | 0.11 | 0.00 | 95 | 1014.7 |
| 20260507062511 | 40 | 112 | 0.0 | 0.0 | 0.00 | 0.11 | 0.00 | 95 | 1014.8 |
| 20260507062007 | 40 | 112 | 0.0 | 0.0 | 0.00 | 0.12 | 0.00 | 95 | 1014.8 |
| 20260507061517 | 40 | 112 | 0.0 | 0.0 | 0.00 | 0.13 | 0.00 | 94 | 1014.7 |
| 20260507061007 | 40 | 112 | 0.0 | 0.0 | 0.00 | 0.14 | 0.00 | 94 | 1014.8 |
| 20260507060507 | 40 | 112 | 0.0 | 0.0 | 0.00 | 0.16 | 0.00 | 94 | 1014.9 |
| 20260507060022 | 40 | 108 | 0.0 | 0.0 | 0.00 | 0.18 | 0.00 | 95 | 1014.9 |
| 20260507055507 | 41 | 108 | 0.0 | 0.0 | 0.00 | 0.19 | 0.00 | 95 | 1014.8 |
| 20260507055012 | 40 | 108 | 0.0 | 0.0 | 0.00 | 0.20 | 0.00 | 95 | 1014.8 |
| 20260507054523 | 40 | 108 | 0.0 | 0.0 | 0.00 | 0.20 | 0.00 | 95 | 1014.8 |
| 20260507054012 | 40 | 108 | 0.0 | 0.0 | 0.00 | 0.21 | 0.00 | 95 | 1014.9 |
| 20260507053507 | 40 | 108 | 0.0 | 0.0 | 0.00 | 0.22 | 0.00 | 95 | 1014.9 |
| 20260507053007 | 40 | 108 | 0.0 | 0.0 | 0.00 | 0.23 | 0.00 | 94 | 1015.1 |
| 20260507052507 | 40 | 108 | 0.0 | 0.0 | 0.00 | 0.24 | 0.00 | 94 | 1015.1 |
| 20260507052007 | 40 | 108 | 0.0 | 0.0 | 0.00 | 0.25 | 0.00 | 94 | 1015.2 |
| 20260507051524 | 40 | 108 | 0.0 | 0.0 | 0.00 | 0.26 | 0.00 | 94 | 1015.2 |
| 20260507051005 | 40 | 108 | 0.0 | 0.0 | 0.00 | 0.28 | 0.00 | 94 | 1015.2 |
| 20260507050507 | 40 | 108 | 0.0 | 0.0 | 0.00 | 0.30 | 0.00 | 94 | 1015.2 |
| 20260507050021 | 40 | 108 | 0.0 | 0.0 | 0.00 | 0.31 | 0.00 | 93 | 1015.2 |
| 20260507045507 | 40 | 108 | 0.0 | 0.0 | 0.00 | 0.32 | 0.00 | 93 | 1015.1 |
| 20260507045010 | 40 | 108 | 0.0 | 0.0 | 0.00 | 0.33 | 0.00 | 93 | 1015.0 |
| 20260507044521 | 41 | 108 | 0.0 | 0.0 | 0.00 | 0.34 | 0.00 | 93 | 1015.0 |
| 20260507044010 | 41 | 108 | 0.0 | 0.0 | 0.00 | 0.34 | 0.00 | 93 | 1015.0 |
| 20260507043508 | 41 | 108 | 0.0 | 0.0 | 0.00 | 0.35 | 0.00 | 92 | 1015.0 |
| 20260507043026 | 41 | 108 | 0.0 | 0.0 | 0.00 | 0.35 | 0.00 | 92 | 1015.0 |
| 20260507042509 | 41 | 108 | 0.0 | 0.0 | 0.00 | 0.37 | 0.00 | 92 | 1015.0 |
| 20260507042008 | 41 | 108 | 0.0 | 0.0 | 0.00 | 0.38 | 0.00 | 92 | 1015.0 |
| 20260507041526 | 41 | 108 | 0.0 | 0.0 | 0.00 | 0.39 | 0.00 | 92 | 1015.0 |
| 20260507041006 | 41 | 108 | 0.0 | 0.0 | 0.00 | 0.41 | 0.00 | 91 | 1015.0 |
| 20260507040509 | 42 | 108 | 0.0 | 0.0 | 0.00 | 0.42 | 0.00 | 91 | 1015.0 |
| 20260507040014 | 42 | 108 | 0.0 | 0.0 | 0.00 | 0.42 | 0.00 | 91 | 1015.0 |
| 20260507035504 | 42 | 108 | 0.0 | 0.0 | 0.00 | 0.42 | 0.42 | 91 | 1015.0 |
| 20260507035006 | 42 | 108 | 0.0 | 0.0 | 0.00 | 0.42 | 0.42 | 90 | 1015.0 |
| 20260507034531 | 42 | 108 | 0.0 | 0.0 | 0.00 | 0.42 | 0.42 | 90 | 1014.9 |
| 20260507034008 | 42 | 108 | 0.0 | 0.0 | 0.00 | 0.42 | 0.42 | 90 | 1014.8 |
| 20260507033507 | 42 | 108 | 0.0 | 0.0 | 0.00 | 0.42 | 0.42 | 89 | 1014.8 |
| 20260507033034 | 43 | 108 | 0.0 | 0.0 | 0.00 | 0.42 | 0.42 | 89 | 1014.9 |
| 20260507032509 | 43 | 108 | 0.0 | 0.0 | 0.00 | 0.42 | 0.42 | 89 | 1014.9 |
| 20260507032011 | 43 | 113 | 0.0 | 0.0 | 0.00 | 0.42 | 0.42 | 89 | 1014.9 |
| 20260507031525 | 43 | 113 | 0.0 | 0.0 | 0.00 | 0.42 | 0.42 | 88 | 1014.9 |
| 20260507031013 | 43 | 113 | 0.0 | 0.0 | 0.00 | 0.42 | 0.42 | 88 | 1015.0 |
| 20260507030510 | 44 | 89 | 0.0 | 0.0 | 0.00 | 0.42 | 0.42 | 87 | 1015.1 |
| 20260507030029 | 44 | 318 | 0.0 | 0.0 | 0.00 | 0.42 | 0.42 | 87 | 1015.2 |
| 20260507025508 | 44 | 304 | 0.0 | 0.0 | 0.00 | 0.43 | 0.42 | 87 | 1015.2 |
| 20260507025005 | 44 | 304 | 0.0 | 0.0 | 0.00 | 0.43 | 0.42 | 88 | 1015.3 |
| 20260507024517 | 44 | 304 | 0.0 | 0.0 | 0.00 | 0.44 | 0.42 | 88 | 1015.2 |
| 20260507024007 | 44 | 304 | 0.0 | 0.0 | 0.00 | 0.45 | 0.42 | 88 | 1015.2 |
| 20260507023506 | 44 | 304 | 0.0 | 0.0 | 0.00 | 0.45 | 0.42 | 87 | 1015.2 |
| 20260507023025 | 44 | 304 | 0.0 | 0.0 | 0.00 | 0.47 | 0.42 | 86 | 1015.2 |
| 20260507022508 | 44 | 304 | 0.0 | 0.0 | 0.00 | 0.48 | 0.42 | 85 | 1015.1 |
| 20260507022008 | 44 | 304 | 0.0 | 0.0 | 0.00 | 0.50 | 0.42 | 83 | 1015.1 |
| 20260507021522 | 45 | 304 | 0.0 | 0.0 | 0.00 | 0.52 | 0.42 | 83 | 1015.1 |
| 20260507021012 | 46 | 304 | 0.0 | 0.0 | 0.00 | 0.54 | 0.42 | 83 | 1015.1 |
| 20260507020510 | 46 | 304 | 0.0 | 0.0 | 0.00 | 0.55 | 0.42 | 83 | 1014.9 |
| 20260507020025 | 47 | 304 | 0.0 | 0.0 | 0.00 | 0.56 | 0.42 | 81 | 1014.9 |
| 20260507015508 | 47 | 304 | 0.0 | 0.0 | 0.00 | 0.56 | 0.42 | 80 | 1014.7 |
| 20260507015017 | 47 | 304 | 0.0 | 0.0 | 0.00 | 0.57 | 0.42 | 80 | 1014.7 |
| 20260507014528 | 48 | 304 | 0.0 | 0.0 | 0.00 | 0.58 | 0.42 | 79 | 1014.6 |
| 20260507014012 | 48 | 304 | 0.0 | 0.0 | 0.00 | 0.58 | 0.42 | 79 | 1014.7 |
| 20260507013508 | 49 | 304 | 0.0 | 0.0 | 0.00 | 0.60 | 0.42 | 78 | 1014.7 |
| 20260507013013 | 49 | 304 | 0.0 | 0.0 | 0.00 | 0.62 | 0.42 | 75 | 1014.6 |
| 20260507012509 | 50 | 304 | 0.0 | 0.0 | 0.00 | 0.64 | 0.42 | 76 | 1014.6 |
| 20260507012007 | 50 | 304 | 0.0 | 0.0 | 0.00 | 0.66 | 0.42 | 72 | 1014.6 |
| 20260507011522 | 51 | 304 | 0.0 | 0.0 | 0.00 | 0.67 | 0.42 | 72 | 1014.6 |
| 20260507011008 | 51 | 304 | 0.0 | 0.0 | 0.00 | 0.69 | 0.42 | 68 | 1014.6 |
| 20260507010508 | 52 | 304 | 0.0 | 0.0 | 0.00 | 0.72 | 0.42 | 61 | 1014.6 |
| 20260507010027 | 52 | 304 | 0.0 | 0.0 | 0.00 | 0.73 | 0.42 | 61 | 1014.5 |
| 20260507005508 | 52 | 304 | 0.0 | 0.0 | 0.00 | 0.75 | 0.42 | 59 | 1014.4 |
| 20260507005006 | 52 | 304 | 0.0 | 0.0 | 0.00 | 0.76 | 0.42 | 58 | 1014.4 |
| 20260507004535 | 53 | 304 | 0.0 | 1.7 | 0.00 | 0.77 | 0.42 | 58 | 1014.2 |
| 20260507004011 | 53 | 299 | 0.0 | 1.7 | 0.00 | 0.78 | 0.42 | 58 | 1014.1 |
| 20260507003511 | 53 | 300 | 0.0 | 0.0 | 0.00 | 0.79 | 0.42 | 59 | 1014.1 |
| 20260507003026 | 53 | 299 | 0.0 | 0.9 | 0.00 | 0.80 | 0.42 | 57 | 1014.1 |
| 20260507002513 | 53 | 300 | 0.0 | 2.6 | 0.00 | 0.82 | 0.42 | 56 | 1014.0 |
| 20260507002017 | 54 | 312 | 0.9 | 2.6 | 0.00 | 0.83 | 0.42 | 56 | 1013.9 |
| 20260507001528 | 54 | 308 | 0.9 | 2.6 | 0.00 | 0.85 | 0.42 | 57 | 1014.0 |
| 20260507001012 | 54 | 313 | 0.0 | 2.6 | 0.00 | 0.86 | 0.42 | 57 | 1013.9 |
| 20260507000503 | 54 | 311 | 0.9 | 2.6 | 0.00 | 0.86 | 0.42 | 56 | 1013.8 |
| 20260507000007 | 54 | 330 | 1.7 | 3.5 | 0.00 | 0.87 | 0.42 | 55 | 1013.7 |
| 20260506235505 | 54 | 288 | 0.0 | 3.5 | 0.00 | 0.88 | 0.42 | 57 | 1013.8 |
| 20260506235003 | 54 | 349 | 0.9 | 3.5 | 0.00 | 0.89 | 0.42 | 56 | 1013.7 |
| 20260506234506 | 54 | 322 | 0.9 | 5.2 | 0.00 | 0.91 | 0.42 | 56 | 1013.7 |
| 20260506234006 | 54 | 312 | 0.9 | 5.2 | 0.00 | 0.91 | 0.42 | 56 | 1013.6 |
| 20260506233506 | 54 | 316 | 2.6 | 5.2 | 0.00 | 0.92 | 0.42 | 55 | 1013.6 |
| 20260506233009 | 54 | 350 | 2.6 | 4.3 | 0.00 | 0.93 | 0.42 | 55 | 1013.7 |
| 20260506232505 | 55 | 297 | 0.9 | 3.5 | 0.00 | 0.93 | 0.42 | 56 | 1013.6 |
| 20260506232006 | 55 | 331 | 0.9 | 4.3 | 0.00 | 0.93 | 0.42 | 55 | 1013.7 |
| 20260506231516 | 55 | 283 | 1.7 | 4.3 | 0.00 | 0.94 | 0.42 | 55 | 1013.7 |
| 20260506231008 | 55 | 314 | 0.9 | 3.5 | 0.00 | 0.95 | 0.42 | 56 | 1013.9 |
| 20260506230502 | 55 | 311 | 0.9 | 3.5 | 0.00 | 0.97 | 0.42 | 56 | 1013.9 |
| 20260506230003 | 55 | 302 | 0.9 | 4.3 | 0.00 | 0.98 | 0.42 | 56 | 1014.0 |
| 20260506225502 | 56 | 331 | 2.6 | 4.3 | 0.00 | 0.99 | 0.42 | 53 | 1013.9 |
| 20260506225003 | 56 | 333 | 0.0 | 3.5 | 0.00 | 1.00 | 0.42 | 56 | 1014.1 |
| 20260506224506 | 55 | 264 | 0.9 | 4.3 | 0.00 | 1.03 | 0.42 | 54 | 1014.1 |
| 20260506224007 | 55 | 53 | 0.9 | 4.3 | 0.00 | 1.04 | 0.42 | 54 | 1014.1 |
| 20260506223505 | 55 | 305 | 1.7 | 4.3 | 0.00 | 1.07 | 0.42 | 53 | 1014.1 |
| 20260506223010 | 55 | 320 | 1.7 | 4.3 | 0.00 | 1.10 | 0.42 | 52 | 1014.2 |
| 20260506222504 | 55 | 351 | 0.9 | 4.3 | 0.00 | 1.10 | 0.42 | 53 | 1014.2 |
| 20260506222006 | 55 | 328 | 1.7 | 4.3 | 0.00 | 1.11 | 0.42 | 54 | 1014.2 |
| 20260506221512 | 55 | 323 | 1.7 | 4.3 | 0.00 | 1.11 | 0.42 | 53 | 1014.2 |
| 20260506221004 | 55 | 8 | 1.7 | 4.3 | 0.00 | 1.11 | 0.42 | 53 | 1014.1 |
| 20260506220507 | 55 | 271 | 1.7 | 3.5 | 0.00 | 1.12 | 0.42 | 53 | 1014.1 |
| 20260506220031 | 55 | 290 | 0.9 | 3.5 | 0.00 | 1.14 | 0.42 | 53 | 1014.2 |
| 20260506215507 | 55 | 319 | 1.7 | 5.2 | 0.00 | 1.15 | 0.42 | 52 | 1014.1 |
| 20260506215002 | 55 | 300 | 1.7 | 6.1 | 0.00 | 1.15 | 0.42 | 51 | 1014.1 |
| 20260506214505 | 55 | 311 | 2.6 | 6.1 | 0.00 | 1.15 | 0.42 | 51 | 1013.9 |
| 20260506214003 | 55 | 319 | 1.7 | 5.2 | 0.00 | 1.15 | 0.42 | 51 | 1013.9 |
| 20260506213503 | 55 | 319 | 1.7 | 5.2 | 0.00 | 1.15 | 0.42 | 53 | 1013.9 |
| 20260506213005 | 56 | 286 | 1.7 | 5.2 | 0.00 | 1.16 | 0.42 | 51 | 1013.8 |
| 20260506212504 | 56 | 315 | 1.7 | 5.2 | 0.00 | 1.16 | 0.42 | 52 | 1013.7 |
| 20260506212004 | 56 | 327 | 3.5 | 7.0 | 0.00 | 1.16 | 0.42 | 49 | 1013.7 |
| 20260506211509 | 56 | 309 | 2.6 | 7.0 | 0.00 | 1.16 | 0.42 | 51 | 1013.7 |
| 20260506211007 | 56 | 330 | 2.6 | 6.1 | 0.00 | 1.16 | 0.42 | 53 | 1013.6 |
| 20260506210506 | 56 | 270 | 1.7 | 5.2 | 0.00 | 1.16 | 0.42 | 54 | 1013.7 |
| 20260506210016 | 56 | 339 | 2.6 | 5.2 | 0.00 | 1.16 | 0.42 | 55 | 1013.6 |
| 20260506205511 | 56 | 303 | 2.6 | 5.2 | 0.00 | 1.17 | 0.42 | 54 | 1013.5 |
| 20260506205007 | 56 | 322 | 1.7 | 5.2 | 0.00 | 1.17 | 0.42 | 56 | 1013.6 |
| 20260506204522 | 55 | 288 | 1.7 | 4.3 | 0.00 | 1.19 | 0.42 | 56 | 1013.6 |
| 20260506204010 | 56 | 330 | 2.6 | 5.2 | 0.00 | 1.20 | 0.42 | 55 | 1013.6 |
| 20260506203507 | 56 | 320 | 1.7 | 5.2 | 0.00 | 1.21 | 0.42 | 53 | 1013.6 |
| 20260506203004 | 56 | 317 | 2.6 | 5.2 | 0.00 | 1.22 | 0.42 | 53 | 1013.5 |
| 20260506202503 | 56 | 338 | 1.7 | 5.2 | 0.00 | 1.23 | 0.42 | 56 | 1013.6 |
| 20260506202007 | 56 | 323 | 1.7 | 7.0 | 0.00 | 1.24 | 0.42 | 54 | 1013.6 |
| 20260506201506 | 56 | 297 | 2.6 | 7.8 | 0.00 | 1.24 | 0.42 | 53 | 1013.6 |
| 20260506201004 | 56 | 328 | 2.6 | 7.8 | 0.00 | 1.25 | 0.42 | 52 | 1013.5 |
| 20260506200503 | 56 | 318 | 3.5 | 6.1 | 0.00 | 1.27 | 0.42 | 53 | 1013.4 |
| 20260506200012 | 56 | 315 | 2.6 | 6.1 | 0.00 | 1.29 | 0.42 | 57 | 1013.4 |
| 20260506195506 | 56 | 294 | 1.7 | 7.0 | 0.00 | 1.30 | 0.42 | 55 | 1013.3 |
| 20260506195003 | 56 | 335 | 2.6 | 7.0 | 0.00 | 1.30 | 0.42 | 55 | 1013.3 |
| 20260506194516 | 56 | 360 | 2.6 | 6.1 | 0.00 | 1.30 | 0.42 | 54 | 1013.2 |
| 20260506194008 | 56 | 336 | 2.6 | 6.1 | 0.00 | 1.30 | 0.42 | 56 | 1013.3 |
| 20260506193512 | 56 | 52 | 3.5 | 6.1 | 0.00 | 1.30 | 0.42 | 57 | 1013.3 |
| 20260506193020 | 56 | 325 | 2.6 | 7.8 | 0.00 | 1.30 | 0.42 | 54 | 1013.3 |
| 20260506192511 | 55 | 338 | 3.5 | 7.8 | 0.00 | 1.30 | 0.42 | 54 | 1013.3 |
| 20260506192011 | 56 | 345 | 3.5 | 6.1 | 0.00 | 1.30 | 0.42 | 55 | 1013.4 |
| 20260506191506 | 56 | 38 | 2.6 | 6.1 | 0.00 | 1.30 | 0.42 | 54 | 1013.3 |
| 20260506191005 | 56 | 330 | 2.6 | 6.1 | 0.00 | 1.30 | 0.42 | 54 | 1013.3 |
| 20260506190504 | 56 | 335 | 3.5 | 6.1 | 0.00 | 1.30 | 0.42 | 53 | 1013.3 |
| 20260506190012 | 57 | 310 | 1.7 | 5.2 | 0.00 | 1.30 | 0.42 | 55 | 1013.4 |
| 20260506185505 | 57 | 280 | 0.9 | 8.7 | 0.00 | 1.30 | 0.42 | 52 | 1013.3 |
| 20260506185008 | 57 | 314 | 2.6 | 8.7 | 0.00 | 1.30 | 0.42 | 53 | 1013.3 |
| 20260506184516 | 57 | 331 | 3.5 | 9.6 | 0.00 | 1.30 | 0.42 | 54 | 1013.3 |
| 20260506184013 | 57 | 10 | 3.5 | 9.6 | 0.00 | 1.30 | 0.42 | 53 | 1013.0 |
| 20260506183508 | 58 | 57 | 3.5 | 7.8 | 0.00 | 1.30 | 0.42 | 53 | 1013.0 |
| 20260506183020 | 58 | 343 | 2.6 | 7.0 | 0.00 | 1.30 | 0.42 | 53 | 1012.9 |
| 20260506182507 | 57 | 287 | 1.7 | 5.2 | 0.00 | 1.30 | 0.42 | 53 | 1013.0 |
| 20260506182011 | 57 | 309 | 2.6 | 7.8 | 0.00 | 1.30 | 0.42 | 55 | 1013.2 |
| 20260506181522 | 57 | 335 | 3.5 | 7.8 | 0.00 | 1.30 | 0.42 | 56 | 1013.2 |
| 20260506181010 | 57 | 349 | 4.3 | 7.8 | 0.00 | 1.30 | 0.42 | 54 | 1013.1 |
| 20260506180508 | 57 | 327 | 2.6 | 6.1 | 0.00 | 1.30 | 0.42 | 55 | 1013.3 |
| 20260506180026 | 57 | 44 | 2.6 | 7.8 | 0.00 | 1.30 | 0.42 | 55 | 1013.4 |
| 20260506175506 | 57 | 20 | 5.2 | 7.8 | 0.00 | 1.30 | 0.42 | 53 | 1013.5 |
| 20260506175006 | 56 | 306 | 1.7 | 6.1 | 0.00 | 1.30 | 0.42 | 57 | 1013.4 |
| 20260506174510 | 56 | 322 | 3.5 | 6.1 | 0.00 | 1.30 | 0.42 | 56 | 1013.4 |
| 20260506174004 | 56 | 351 | 2.6 | 4.3 | 0.00 | 1.30 | 0.42 | 55 | 1013.4 |
| 20260506173505 | 56 | 338 | 2.6 | 11.3 | 0.00 | 1.30 | 0.42 | 56 | 1013.4 |
| 20260506173016 | 56 | 15 | 3.5 | 11.3 | 0.00 | 1.30 | 0.42 | 56 | 1013.5 |
| 20260506172506 | 56 | 311 | 1.7 | 6.1 | 0.00 | 1.30 | 0.42 | 60 | 1013.5 |
| 20260506172011 | 56 | 341 | 3.5 | 6.1 | 0.00 | 1.30 | 0.42 | 58 | 1013.5 |
| 20260506171522 | 56 | 322 | 2.6 | 5.2 | 0.00 | 1.30 | 0.42 | 60 | 1013.5 |
| 20260506171009 | 56 | 356 | 2.6 | 7.0 | 0.00 | 1.30 | 0.42 | 58 | 1013.7 |
| 20260506170508 | 56 | 304 | 1.7 | 7.0 | 0.00 | 1.30 | 0.42 | 60 | 1013.8 |
| 20260506170024 | 56 | 302 | 2.6 | 7.8 | 0.00 | 1.30 | 0.42 | 61 | 1013.6 |
| 20260506165514 | 56 | 275 | 2.6 | 7.8 | 0.00 | 1.30 | 0.42 | 62 | 1013.6 |
| 20260506165007 | 56 | 339 | 3.5 | 6.1 | 0.00 | 1.30 | 0.42 | 62 | 1013.5 |
| 20260506164527 | 56 | 273 | 2.6 | 8.7 | 0.00 | 1.30 | 0.42 | 60 | 1013.4 |
| 20260506164005 | 55 | 7 | 1.7 | 8.7 | 0.00 | 1.30 | 0.42 | 62 | 1013.4 |
| 20260506163504 | 55 | 301 | 2.6 | 7.8 | 0.00 | 1.30 | 0.42 | 61 | 1013.5 |
| 20260506163010 | 55 | 345 | 2.6 | 7.0 | 0.00 | 1.30 | 0.42 | 61 | 1013.7 |
| 20260506162505 | 55 | 347 | 3.5 | 13.9 | 0.00 | 1.30 | 0.42 | 60 | 1013.7 |
| 20260506162011 | 56 | 297 | 2.6 | 13.9 | 0.00 | 1.30 | 0.42 | 64 | 1013.7 |